Location: Moscow
(55.7500°N, 37.5830°E)
Time: 19:22:20
(UTC+03:00)

Vanguard 1 - Pass Details

Date: 09 December 2021
Orbit: 652 x 3830 km, 34.2° (Epoch: 22 January)

Event Time Altitude Azimuth Distance (km) Brightness Sun altitude
Rises 00:38:45 0° 239° (WSW) 7,175 - -56.9°
Reaches altitude 10° 00:43:40 10° 232° (SW) 6,457 - -56.8°
Maximum altitude 01:02:58 39° 174° (S) 4,884 - -56.2°
Exits shadow 01:16:26 21° 125° (SE) 5,619 13.7 -55.5°
Drops below altitude 10° 01:21:34 10° 115° (ESE) 6,254 14.1 -55.3°
Sets 01:26:13 0° 108° (ESE) 6,941 14.5 -55.0°
